[Iaude] MPEC V78: 2023 VF2 [a=2.26,e=0.57,i=3.1,H=27.1]
    mpec at marsden.cfa.harvard.edu 
    mpec at marsden.cfa.harvard.edu
       
    Mon Nov  6 18:31:11 EST 2023
    
    
  
M.P.E.C. 2023-V78                              Issued 2023 November 6, 23:29 UT
     The Minor Planet Electronic Circulars contain information on unusual
         minor planets, routine data on comets and natural satellites,
         and occasional editorial announcements.  They are published
    on behalf of Division F of the International Astronomical Union by the
          Minor Planet Center, Smithsonian Astrophysical Observatory,
                          Cambridge, MA 02138, U.S.A.
			  
             Prepared using the Tamkin Foundation Computer Network
                              MPC at CFA.HARVARD.EDU
            URL https://www.minorplanetcenter.net/    ISSN 1523-6714
                                    2023 VF2                                    
Observations:
     K23V02F*1C2023 11 05.37300703 17 30.815+07 49 56.60         20.26GVEV078G96
     K23V02F 1C2023 11 05.37820603 17 35.387+07 51 21.28         19.91GVEV078G96
     K23V02F 1C2023 11 05.38340103 17 39.995+07 52 47.28         20.04GVEV078G96
     K23V02F 1C2023 11 05.38860903 17 44.581+07 54 11.81         20.37GVEV078G96
     K23V02F KC2023 11 05.45776203 18 45.860+08 12 50.76         20.28GVEV078I52
     K23V02F KC2023 11 05.45834303 18 46.357+08 12 58.90         20.08GVEV078I52
     K23V02F KC2023 11 05.45893003 18 46.861+08 13 08.90         20.32GVEV078I52
     K23V02F KC2023 11 05.45952203 18 47.387+08 13 18.66         20.08GVEV078I52
     K23V02F KC2023 11 06.04256003 27 31.63 +10 37 18.4          20.1 GVEV078L01
     K23V02F KC2023 11 06.04466003 27 33.19 +10 37 47.5          20.2 GVEV078L01
     K23V02F KC2023 11 06.04700303 27 34.96 +10 38 19.2          20.0 GVEV078L01
     K23V02F KC2023 11 06.09159103 28 09.61 +10 48 22.1          20.6 GVEV078204
     K23V02F KC2023 11 06.09884903 28 15.11 +10 49 59.5                VEV078204
     K23V02F KC2023 11 06.10550003 28 20.12 +10 51 28.3                VEV078204
     K23V02F mC2023 11 06.24856903 30 28.566+11 23 54.82         21.05GVEV078I52
     K23V02F mC2023 11 06.24902803 30 28.872+11 24 00.94         20.61GVEV078I52
     K23V02F mC2023 11 06.25295503 30 31.658+11 24 51.70         20.17GVEV078I52
     K23V02F mC2023 11 06.25342203 30 32.022+11 24 58.00         20.39GVEV078I52
Observer details:
204 Schiaparelli Observatory.  Observers L. Buzzi, G. Galli.  0.84-m f/3.5
    reflector + CCD.
G96 Mt. Lemmon Survey.  Observer J. B. Fazekas.  Measurers E. C. Beshore, D.
    Fay, J. B. Fazekas, D. C. Fuls, A. R. Gibbs, A. D. Grauer, H. Groeller, J.
    K. Hogan, R. A. Kowalski, S. M. Larson, G. J. Leonard, D. Rankin, R. L.
    Seaman, F. C. Shelly, K. W. Wierzchos.  1.5-m reflector + 10K CCD.
I52 Steward Observatory, Mt. Lemmon Station.  Observer R. A. Kowalski.
    Measurers E. C. Beshore, D. Fay, J. B. Fazekas, D. C. Fuls, A. R. Gibbs,
    A. D. Grauer, H. Groeller, J. K. Hogan, R. A. Kowalski, S. M. Larson, G.
    J. Leonard, D. Rankin, R. L. Seaman, F. C. Shelly, K. W. Wierzchos.  1.0-m
    prime focus + CCD.
L01 Visnjan Observatory, Tican.  Observer K. Korlevic.  1.0-m f/2.9 reflector
    + CCD.
Orbital elements:
2023 VF2                                                 Earth MOID = 0.0137 AU
Epoch 2023 Sept. 13.0 TT = JDT 2460200.5                Veres                   
M 351.82470              (2000.0)            P               Q                  
n   0.28926541     Peri.  322.68544     +0.98036258     -0.19302866             
a   2.2643230      Node    48.49470     +0.19142623     +0.88231702             
e   0.5721519      Incl.    3.08952     +0.04738358     +0.42925122             
P   3.41           H   27.14          G   0.15           U   8                  
Residuals in seconds of arc
231105 G96  0.1+  0.6+    231105 I52  0.2-  0.1-    231106 204  0.1+  0.4+
231105 G96  0.1-  0.2-    231105 I52  0.3-  0.2+    231106 204  0.2-  0.2+
231105 G96  0.2+  0.5+    231106 L01  0.4+  0.2-    231106 I52  0.0   0.1+
231105 G96  0.0   0.3-    231106 L01  0.0   0.2+    231106 I52  0.3-  0.3+
231105 I52  0.4+  0.4+    231106 L01  0.0   0.0     231106 I52  0.1-  0.4-
231105 I52  0.0   0.8-    231106 204  0.1-  0.3+    231106 I52  0.4+  0.2-
Ephemeris:
2023 VF2                 a,e,i = 2.26, 0.57, 3                   q = 0.9688
Date    TT    R. A. (2000) Decl.     Delta      r    Elong.  Phase     V
2023 10 07    17 41 34.5 -38 31 54   0.1360  0.9704    73.7    98.5    26.3
...
2023 10 22    18 45 02.9 -44 25 33   0.05776 0.9791    72.0   104.8    24.8
...
2023 10 30    22 53 53.3 -44 32 38   0.02230 0.9997   106.2    72.5    21.4
...
2023 11 05    03 11 13.5 +06 03 28   0.03068 1.0217   167.6    12.0    20.3
2023 11 06    03 27 00.1 +10 29 44   0.03515 1.0259   167.9    11.7    20.6
2023 11 07    03 39 22.4 +13 52 24   0.03993 1.0302   167.0    12.5    21.0
...
2023 11 13    04 17 52.6 +23 37 28   0.07173 1.0587   163.1    15.7    22.4
...
2023 11 21    04 34 56.6 +27 39 51   0.1183  1.1031   165.8    12.7    23.5
...
2023 12 06    04 43 09.9 +29 35 47   0.2173  1.2013   172.7     6.0    24.7
M. P. C. Staff               (C) Copyright 2023 MPC           M.P.E.C. 2023-V78
    
    
More information about the Iaude
mailing list